TimePDT,TemperatureF,Dew PointF,Humidity,Sea Level PressureIn,VisibilityMPH,Wind Direction,Wind SpeedMPH,Gust SpeedMPH,PrecipitationIn,Events,Conditions,WindDirDegrees,DateUTC
12:53 AM,64.9,46.9,52,30.09,10.0,West,5.8,-,N/A,,Clear,270,2013-05-12 07:53:00
1:53 AM,63.0,46.0,54,30.09,10.0,Calm,Calm,-,N/A,,Clear,0,2013-05-12 08:53:00
2:53 AM,63.0,46.0,54,30.09,10.0,Calm,Calm,-,N/A,,Clear,0,2013-05-12 09:53:00
3:53 AM,61.0,46.0,58,30.08,10.0,Calm,Calm,-,N/A,,Clear,0,2013-05-12 10:53:00
4:53 AM,59.0,45.0,60,30.09,10.0,Calm,Calm,-,N/A,,Clear,0,2013-05-12 11:53:00
5:53 AM,57.0,46.0,67,30.10,10.0,Calm,Calm,-,N/A,,Clear,0,2013-05-12 12:53:00
6:53 AM,57.9,45.0,62,30.12,10.0,Calm,Calm,-,N/A,,Clear,0,2013-05-12 13:53:00
7:53 AM,63.0,46.9,56,30.12,10.0,Calm,Calm,-,N/A,,Clear,0,2013-05-12 14:53:00
8:53 AM,69.1,45.0,42,30.12,10.0,Calm,Calm,-,N/A,,Clear,0,2013-05-12 15:53:00
9:53 AM,75.9,44.1,32,30.10,10.0,Variable,3.5,-,N/A,,Clear,0,2013-05-12 16:53:00
10:53 AM,84.0,46.0,26,30.08,10.0,WNW,5.8,-,N/A,,Clear,300,2013-05-12 17:53:00
11:53 AM,91.0,48.0,23,30.06,10.0,Calm,Calm,-,N/A,,Clear,0,2013-05-12 18:53:00
12:53 PM,96.1,48.0,19,30.03,10.0,SW,5.8,-,N/A,,Clear,230,2013-05-12 19:53:00
1:53 PM,99.0,43.0,15,30.01,10.0,Calm,Calm,-,N/A,,Clear,0,2013-05-12 20:53:00
2:53 PM,100.9,37.0,11,29.98,10.0,West,10.4,-,N/A,,Clear,280,2013-05-12 21:53:00
3:53 PM,100.9,37.9,11,29.95,10.0,Calm,Calm,-,N/A,,Clear,0,2013-05-12 22:53:00
4:53 PM,100.9,39.0,12,29.93,10.0,West,10.4,-,N/A,,Clear,260,2013-05-12 23:53:00
5:33 PM,98.6,41.0,14,29.96,10.0,NNW,17.3,-,N/A,,Partly Cloudy,330,2013-05-13 00:33:00
5:53 PM,96.1,42.1,15,29.93,10.0,NW,17.3,-,N/A,,Clear,320,2013-05-13 00:53:00
6:53 PM,89.1,43.0,20,29.94,10.0,NW,13.8,-,N/A,,Clear,320,2013-05-13 01:53:00
7:53 PM,82.9,41.0,23,29.96,10.0,WNW,6.9,-,N/A,,Clear,290,2013-05-13 02:53:00
8:53 PM,78.1,44.1,30,29.99,10.0,WNW,11.5,-,N/A,,Clear,300,2013-05-13 03:53:00
9:53 PM,75.0,45.0,34,30.01,10.0,NW,11.5,-,N/A,,Clear,310,2013-05-13 04:53:00
10:53 PM,72.0,46.0,40,30.01,10.0,WNW,9.2,-,N/A,,Clear,290,2013-05-13 05:53:00
11:53 PM,69.1,46.0,44,30.01,10.0,West,4.6,-,N/A,,Clear,280,2013-05-13 06:53:00